Jerome, ID

1:41 AM MST on January 24, 2017 (GMT -0700)
Jerome County

Weather History for KJER - May, 2014

Change the Weather History Date:

Saturday, May 10, 2014

  Actual Average Record
Temperature  
Mean Temperature 46 °F 53 °F  
Max Temperature 53 °F 66 °F 92 °F (1940)
Min Temperature 38 °F 41 °F 24 °F (1916)
Degree Days  
Heating Degree Days 19 12  
Month to date heating degree days 103 133  
Since 1 July heating degree days 5990 6336  
Cooling Degree Days 0 0  
Month to date cooling degree days 2 0  
Year to date cooling degree days 2 0  
Moisture  
Dew Point 34 °F    
Average Humidity 66    
Maximum Humidity 100    
Minimum Humidity 32    
Precipitation  
Precipitation 0.05 in 0.04 in 0.72 in (2010)
Month to date precipitation 0.30 0.49  
Year to date precipitation 4.64 4.85  
Sea Level Pressure  
Sea Level Pressure 29.93 in    
Wind  
Wind Speed 18 mph (WSW)    
Max Wind Speed 31 mph    
Max Gust Speed 40 mph    
Visibility 10 miles    
Events Rain    
T = Trace of Precipitation, MM = Missing Value Source: NWS Daily Summary

Daily Weather History Graph

Daily Weather History Graph

Search for Another Location

Airport or City:

Trip Planner

Search our weather history database for the weather conditions in past years. The results will help you decide how hot, cold, wet, or windy it might be!

Date:

Astronomy

May. 10, 2014 Rise Set
Actual Time 6:20 AM MDT 8:48 PM MDT
Civil Twilight 5:48 AM MDT 9:20 PM MDT
Nautical Twilight 5:09 AM MDT 10:00 PM MDT
Astronomical Twilight 4:24 AM MDT 10:44 PM MDT
Moon 4:42 PM MDT (5/10) 4:02 AM MDT (5/10)
Length of Visible Light 15h 31m
Length of Day
14h 27m
Waxing Gibbous, 82% of the Moon is Illuminated
May 10
Waxing Gibbous
May 14
Full
May 21
Last Quarter
May 28
New
Jun 5
First Quarter

Hourly Weather History & Observations

Time (MDT) Temp. Windchill Dew Point Humidity Pressure Visibility Wind Dir Wind Speed Gust Speed Precip Events Conditions
12:53 AM 44.1 °F 40.1 °F 41.0 °F 89% 29.91 in 10.0 mi SSW 6.9 mph - 0.00 in Rain Light Rain
1:53 AM 42.1 °F 34.9 °F 39.0 °F 89% 29.92 in 10.0 mi WNW 13.8 mph - 0.04 in Rain Light Rain
2:53 AM 42.1 °F 36.1 °F 39.0 °F 89% 29.92 in 10.0 mi SW 10.4 mph - 0.00 in Rain Light Rain
3:48 AM 41.0 °F 33.5 °F 39.2 °F 93% 29.94 in 10.0 mi SW 13.8 mph - 0.01 in   Overcast
3:53 AM 41.0 °F 33.5 °F 39.0 °F 93% 29.93 in 10.0 mi SW 13.8 mph - 0.01 in   Overcast
4:00 AM 41.0 °F 33.5 °F 39.0 °F 93% 29.95 in 10.0 mi SW 13.8 mph 23.0 mph N/A   Overcast
4:10 AM 41.0 °F 32.8 °F 39.9 °F 96% 29.95 in 10.0 mi SW 16.1 mph - N/A   Overcast
5:11 AM 39.9 °F 30.8 °F 37.9 °F 93% 29.95 in 10.0 mi WSW 18.4 mph 24.2 mph N/A   Overcast
5:53 AM 39.0 °F 29.9 °F 37.0 °F 93% 29.94 in 10.0 mi WSW 17.3 mph - N/A   Overcast
6:01 AM 39.0 °F 29.9 °F 37.0 °F 93% 29.95 in 10.0 mi WSW 17.3 mph - N/A   Overcast
6:15 AM 39.0 °F 30.3 °F 37.9 °F 96% 29.95 in 10.0 mi WSW 16.1 mph - N/A   Overcast
6:53 AM 37.9 °F 27.9 °F 37.0 °F 97% 29.95 in 10.0 mi WSW 19.6 mph 25.3 mph N/A   Overcast
7:53 AM 39.0 °F 29.6 °F 37.0 °F 93% 29.95 in 10.0 mi WSW 18.4 mph - N/A   Overcast
8:53 AM 41.0 °F 31.4 °F 37.0 °F 86% 29.95 in 10.0 mi WSW 21.9 mph - N/A   Mostly Cloudy
9:00 AM 41.0 °F 31.6 °F 37.0 °F 86% 29.95 in 10.0 mi WSW 20.7 mph 26.5 mph N/A   Scattered Clouds
9:15 AM 41.0 °F 31.6 °F 36.0 °F 82% 29.96 in 10.0 mi WSW 20.7 mph 27.6 mph N/A   Mostly Cloudy
9:22 AM 42.1 °F 33.3 °F 36.0 °F 79% 29.96 in 10.0 mi WSW 19.6 mph 27.6 mph N/A   Scattered Clouds
9:29 AM 42.1 °F 33.1 °F 36.0 °F 79% 29.96 in 10.0 mi WSW 20.7 mph - N/A   Mostly Cloudy
9:46 AM 43.0 °F 34.8 °F 36.0 °F 76% 29.96 in 10.0 mi WSW 18.4 mph 27.6 mph N/A   Scattered Clouds
9:53 AM 43.0 °F 34.2 °F 36.0 °F 76% 29.95 in 10.0 mi West 20.7 mph - N/A   Scattered Clouds
10:53 AM 44.1 °F 36.8 °F 33.1 °F 65% 29.94 in 10.0 mi WSW 16.1 mph 28.8 mph N/A   Mostly Cloudy
11:53 AM 48.0 °F - 34.0 °F 58% 29.93 in 10.0 mi West 21.9 mph 28.8 mph N/A   Scattered Clouds
12:53 PM 50.0 °F - 28.9 °F 44% 29.91 in 10.0 mi WSW 19.6 mph 29.9 mph N/A   Scattered Clouds
1:53 PM 52.0 °F - 30.0 °F 43% 29.89 in 10.0 mi WSW 21.9 mph 29.9 mph N/A   Scattered Clouds
2:53 PM 53.1 °F - 28.0 °F 38% 29.88 in 10.0 mi WSW 21.9 mph 29.9 mph N/A   Partly Cloudy
3:53 PM 53.1 °F - 25.0 °F 34% 29.88 in 10.0 mi West 24.2 mph 33.4 mph N/A   Clear
4:53 PM 52.0 °F - 26.1 °F 37% 29.87 in 10.0 mi WSW 26.5 mph 36.8 mph N/A   Clear
5:53 PM 50.0 °F - 26.1 °F 39% 29.90 in 10.0 mi WSW 26.5 mph 35.7 mph N/A   Clear
6:53 PM 48.9 °F - 26.1 °F 41% 29.91 in 10.0 mi WSW 23.0 mph 28.8 mph N/A   Clear
7:53 PM 48.0 °F - 27.0 °F 44% 29.92 in 10.0 mi WSW 19.6 mph 28.8 mph N/A   Clear
9:53 PM 42.1 °F 36.6 °F 28.0 °F 58% 29.96 in 10.0 mi WSW 9.2 mph - N/A   Clear
10:53 PM 41.0 °F 32.5 °F 30.9 °F 67% 29.95 in 10.0 mi West 17.3 mph - N/A   Overcast
11:53 PM 39.9 °F 33.9 °F 32.0 °F 73% 29.96 in 10.0 mi West 9.2 mph - N/A   Overcast